Precipitable_Water
0.57 0.54 0.53 0.51 0.50 0.49 0.47 0.47 0.45 0.45 0.45 0.47 0.50 0.50 0.49 0.50 0.53 0.52 0.47 0.43 0.41 0.45 0.48 0.46 0.44 0.42 0.38 0.29 0.35 0.58 0.47 0.44 0.46 0.42 0.34 0.32 0.28 0.27 0.23 0.26 0.28 0.24 0.25 0.28 0.26 0.25 0.23
0.55 0.56 0.54 0.53 0.51 0.49 0.49 0.49 0.47 0.46 0.46 0.47 0.48 0.49 0.52 0.51 0.51 0.49 0.43 0.39 0.41 0.44 0.44 0.42 0.42 0.40 0.33 0.18 0.51 0.54 0.47 0.46 0.42 0.40 0.36 0.36 0.33 0.32 0.24 0.24 0.24 0.30 0.28 0.26 0.27 0.26 0.26
0.53 0.50 0.51 0.51 0.49 0.49 0.49 0.48 0.46 0.47 0.47 0.50 0.52 0.53 0.52 0.50 0.46 0.44 0.41 0.39 0.37 0.38 0.37 0.38 0.38 0.38 0.26 0.28 0.49 0.48 0.47 0.44 0.47 0.42 0.35 0.38 0.36 0.28 0.31 0.25 0.33 0.27 0.20 0.23 0.24 0.26 0.27
0.51 0.50 0.49 0.47 0.47 0.47 0.47 0.46 0.47 0.47 0.52 0.53 0.53 0.53 0.51 0.48 0.47 0.41 0.35 0.33 0.34 0.36 0.37 0.38 0.39 0.35 0.23 0.40 0.51 0.46 0.47 0.44 0.48 0.46 0.41 0.40 0.37 0.30 0.25 0.30 0.23 0.19 0.20 0.14 0.23 0.28 0.31
0.50 0.50 0.50 0.48 0.47 0.48 0.47 0.47 0.47 0.48 0.52 0.52 0.49 0.50 0.48 0.45 0.42 0.35 0.34 0.36 0.40 0.42 0.42 0.43 0.41 0.36 0.29 0.50 0.43 0.48 0.49 0.41 0.42 0.44 0.42 0.40 0.35 0.28 0.28 0.17 0.15 0.18 0.14 0.17 0.21 0.30 0.29
0.51 0.50 0.49 0.48 0.48 0.47 0.46 0.46 0.47 0.49 0.51 0.48 0.47 0.47 0.45 0.41 0.36 0.33 0.34 0.36 0.41 0.43 0.40 0.40 0.33 0.30 0.35 0.35 0.42 0.43 0.48 0.41 0.35 0.34 0.31 0.31 0.27 0.20 0.21 0.18 0.10 0.14 0.17 0.18 0.16 0.22 0.23
0.51 0.49 0.47 0.47 0.46 0.47 0.47 0.47 0.48 0.50 0.49 0.47 0.46 0.46 0.44 0.40 0.37 0.35 0.37 0.37 0.31 0.30 0.28 0.23 0.27 0.25 0.29 0.39 0.42 0.41 0.44 0.39 0.36 0.30 0.21 0.30 0.19 0.17 0.22 0.23 0.22 0.18 0.15 0.12 0.13 0.17 0.19
0.51 0.50 0.48 0.45 0.45 0.46 0.47 0.48 0.52 0.50 0.47 0.44 0.44 0.46 0.43 0.40 0.39 0.38 0.41 0.27 0.28 0.36 0.23 0.34 0.35 0.35 0.37 0.39 0.31 0.36 0.43 0.31 0.27 0.22 0.25 0.21 0.18 0.24 0.23 0.19 0.17 0.14 0.13 0.12 0.15 0.17 0.17
0.53 0.51 0.48 0.47 0.47 0.46 0.46 0.49 0.51 0.47 0.44 0.43 0.44 0.45 0.43 0.38 0.40 0.38 0.32 0.33 0.47 0.43 0.25 0.29 0.35 0.35 0.35 0.38 0.29 0.30 0.36 0.29 0.24 0.19 0.21 0.17 0.19 0.22 0.17 0.14 0.14 0.15 0.13 0.14 0.13 0.14 0.15
0.53 0.52 0.49 0.46 0.46 0.46 0.46 0.49 0.50 0.46 0.43 0.41 0.43 0.44 0.40 0.37 0.38 0.36 0.31 0.42 0.49 0.47 0.20 0.27 0.31 0.37 0.36 0.34 0.28 0.37 0.38 0.28 0.24 0.17 0.17 0.13 0.20 0.17 0.15 0.14 0.17 0.13 0.17 0.16 0.14 0.12 0.09
0.56 0.52 0.48 0.47 0.47 0.45 0.46 0.48 0.47 0.46 0.44 0.41 0.42 0.41 0.38 0.39 0.34 0.30 0.33 0.44 0.51 0.40 0.12 0.28 0.30 0.41 0.29 0.26 0.27 0.35 0.38 0.30 0.18 0.18 0.19 0.13 0.17 0.17 0.15 0.16 0.18 0.15 0.20 0.17 0.15 0.12 0.11
0.57 0.55 0.49 0.47 0.47 0.46 0.46 0.48 0.49 0.46 0.44 0.42 0.42 0.41 0.39 0.40 0.40 0.37 0.43 0.48 0.40 0.20 0.12 0.21 0.28 0.24 0.22 0.22 0.23 0.27 0.28 0.32 0.28 0.20 0.19 0.17 0.25 0.23 0.21 0.22 0.23 0.22 0.15 0.14 0.13 0.13 0.09
0.60 0.56 0.50 0.46 0.46 0.46 0.45 0.46 0.46 0.46 0.42 0.41 0.40 0.39 0.34 0.36 0.31 0.43 0.46 0.37 0.19 0.14 0.21 0.20 0.21 0.23 0.19 0.17 0.19 0.19 0.21 0.18 0.16 0.12 0.14 0.17 0.17 0.26 0.27 0.20 0.22 0.21 0.18 0.10 0.08 0.10 0.08
0.66 0.58 0.51 0.47 0.46 0.45 0.46 0.46 0.45 0.44 0.41 0.38 0.35 0.39 0.40 0.34 0.41 0.47 0.38 0.24 0.15 0.21 0.20 0.26 0.22 0.19 0.15 0.19 0.19 0.18 0.21 0.19 0.23 0.19 0.16 0.16 0.15 0.22 0.27 0.24 0.18 0.19 0.18 0.13 0.08 0.06 0.08
0.71 0.66 0.54 0.48 0.47 0.46 0.48 0.47 0.44 0.43 0.40 0.36 0.36 0.41 0.38 0.35 0.45 0.47 0.28 0.18 0.21 0.23 0.26 0.22 0.21 0.17 0.17 0.19 0.18 0.17 0.18 0.19 0.22 0.21 0.14 0.14 0.14 0.22 0.21 0.20 0.18 0.14 0.12 0.18 0.15 0.14 0.13
0.84 0.68 0.59 0.53 0.49 0.47 0.46 0.46 0.46 0.43 0.39 0.39 0.37 0.35 0.37 0.37 0.47 0.35 0.23 0.20 0.24 0.28 0.28 0.25 0.18 0.19 0.16 0.20 0.18 0.18 0.19 0.22 0.21 0.22 0.24 0.21 0.12 0.14 0.17 0.17 0.15 0.17 0.18 0.11 0.13 0.09 0.07
0.98 0.85 0.60 0.56 0.53 0.48 0.47 0.47 0.45 0.44 0.41 0.41 0.36 0.30 0.41 0.41 0.40 0.26 0.19 0.25 0.30 0.31 0.32 0.25 0.23 0.20 0.21 0.20 0.21 0.19 0.19 0.23 0.23 0.21 0.22 0.17 0.14 0.12 0.15 0.10 0.09 0.10 0.11 0.13 0.13 0.12 0.09
1.03 0.92 0.78 0.67 0.54 0.51 0.48 0.47 0.45 0.45 0.44 0.40 0.34 0.24 0.40 0.41 0.26 0.25 0.25 0.29 0.34 0.31 0.32 0.29 0.28 0.25 0.23 0.25 0.21 0.20 0.21 0.22 0.24 0.21 0.16 0.16 0.11 0.07 0.06 0.08 0.10 0.10 0.10 0.10 0.07 0.07 0.09
1.08 0.98 0.84 0.75 0.68 0.56 0.49 0.45 0.44 0.45 0.44 0.41 0.33 0.33 0.38 0.35 0.22 0.26 0.30 0.27 0.30 0.28 0.27 0.28 0.26 0.27 0.26 0.23 0.16 0.21 0.23 0.25 0.23 0.18 0.13 0.12 0.08 0.05 0.05 0.10 0.12 0.10 0.10 0.10 0.10 0.10 0.07
1.10 0.99 0.88 0.78 0.70 0.61 0.56 0.50 0.45 0.44 0.43 0.40 0.32 0.29 0.33 0.31 0.31 0.28 0.29 0.27 0.26 0.30 0.28 0.28 0.26 0.26 0.23 0.20 0.21 0.18 0.19 0.22 0.20 0.13 0.12 0.10 0.07 0.05 0.04 0.06 0.09 0.07 0.07 0.08 0.09 0.08 0.09
1.07 0.95 0.94 0.92 0.87 0.77 0.61 0.51 0.47 0.44 0.43 0.39 0.31 0.30 0.33 0.28 0.28 0.28 0.29 0.29 0.27 0.25 0.27 0.27 0.24 0.22 0.19 0.16 0.15 0.13 0.14 0.13 0.14 0.16 0.14 0.10 0.06 0.07 0.08 0.09 0.09 0.08 0.08 0.08 0.09 0.11 0.09
1.06 0.99 0.98 0.94 0.85 0.73 0.60 0.53 0.46 0.44 0.42 0.36 0.32 0.28 0.29 0.28 0.29 0.28 0.28 0.28 0.27 0.26 0.25 0.23 0.21 0.21 0.17 0.13 0.13 0.10 0.12 0.11 0.10 0.15 0.11 0.12 0.07 0.09 0.08 0.10 0.10 0.08 0.08 0.09 0.11 0.13 0.13
1.02 0.99 0.97 0.93 0.85 0.68 0.62 0.54 0.47 0.42 0.44 0.36 0.34 0.35 0.31 0.29 0.28 0.28 0.29 0.30 0.30 0.28 0.26 0.25 0.22 0.18 0.15 0.15 0.16 0.14 0.14 0.13 0.11 0.10 0.10 0.11 0.10 0.09 0.06 0.09 0.09 0.06 0.10 0.12 0.13 0.13 0.13
1.00 0.99 0.99 0.91 0.77 0.60 0.50 0.48 0.45 0.42 0.42 0.40 0.37 0.34 0.31 0.30 0.31 0.31 0.33 0.31 0.29 0.27 0.25 0.23 0.20 0.16 0.20 0.20 0.15 0.14 0.12 0.12 0.11 0.11 0.13 0.11 0.11 0.10 0.08 0.10 0.05 0.12 0.16 0.16 0.13 0.14 0.15
1.02 1.01 0.94 0.78 0.62 0.55 0.50 0.47 0.47 0.46 0.43 0.39 0.40 0.35 0.32 0.31 0.35 0.35 0.33 0.27 0.27 0.27 0.22 0.20 0.20 0.20 0.19 0.14 0.10 0.08 0.08 0.11 0.12 0.14 0.14 0.14 0.12 0.09 0.07 0.07 0.09 0.13 0.14 0.14 0.12 0.11 0.14
1.00 0.94 0.82 0.69 0.59 0.55 0.53 0.50 0.46 0.43 0.43 0.44 0.43 0.43 0.36 0.34 0.32 0.28 0.27 0.28 0.23 0.20 0.18 0.19 0.20 0.19 0.16 0.12 0.09 0.06 0.05 0.07 0.08 0.11 0.15 0.15 0.14 0.11 0.08 0.07 0.06 0.11 0.17 0.17 0.15 0.09 0.15
0.95 0.85 0.69 0.58 0.57 0.54 0.51 0.48 0.47 0.45 0.48 0.45 0.44 0.48 0.34 0.26 0.33 0.32 0.24 0.20 0.21 0.18 0.16 0.17 0.15 0.15 0.14 0.12 0.08 0.07 0.08 0.11 0.07 0.08 0.10 0.11 0.12 0.10 0.10 0.09 0.11 0.15 0.16 0.16 0.09 0.09 0.15
0.89 0.75 0.64 0.58 0.59 0.56 0.52 0.53 0.53 0.49 0.45 0.34 0.34 0.41 0.35 0.29 0.32 0.30 0.26 0.20 0.18 0.17 0.14 0.17 0.13 0.16 0.14 0.10 0.09 0.10 0.09 0.11 0.10 0.10 0.10 0.09 0.09 0.09 0.10 0.08 0.07 0.16 0.14 0.10 0.13 0.15 0.15
0.80 0.70 0.60 0.58 0.55 0.55 0.54 0.50 0.44 0.37 0.35 0.37 0.31 0.37 0.37 0.27 0.27 0.30 0.29 0.29 0.26 0.24 0.17 0.15 0.15 0.15 0.16 0.13 0.13 0.12 0.10 0.11 0.10 0.08 0.14 0.10 0.12 0.10 0.11 0.11 0.15 0.15 0.14 0.16 0.16 0.15 0.15
Wind_Speed
4 5 5 5 5 6 7 8 9 10 10 11 11 12 12 13 14 13 11 9 8 8 7 7 7 7 6 6 5 7 8 8 8 8 8 8 9 9 10 9 9 11 12 11 14 13 15
6 6 6 7 7 8 9 9 10 11 11 11 12 12 13 14 13 12 10 9 9 8 8 8 8 8 7 7 9 9 10 9 9 9 9 9 9 10 11 11 11 12 14 16 16 16 16
7 7 8 8 9 9 10 10 11 11 11 12 12 13 14 13 12 11 10 10 9 9 9 9 9 9 9 9 10 11 10 10 10 10 10 10 11 11 11 12 12 14 15 17 17 16 17
8 8 8 9 9 10 10 11 11 11 11 12 13 14 13 13 13 12 10 9 9 9 10 10 10 10 10 12 12 12 12 12 11 11 11 11 12 13 13 14 14 14 14 15 14 12 14
8 8 9 9 9 10 10 10 10 11 12 13 14 14 14 14 13 11 11 10 10 10 11 11 11 12 12 12 12 12 12 12 12 11 12 13 13 13 12 14 14 14 14 15 13 13 14
8 8 9 9 10 10 10 10 11 11 12 13 14 13 13 13 12 11 11 11 10 11 11 12 12 12 12 13 13 13 12 12 12 12 13 12 12 13 14 14 13 13 15 16 15 16 18
9 9 9 10 10 10 10 11 11 12 13 13 13 13 13 12 11 12 11 11 11 11 12 13 14 14 13 13 13 11 11 11 11 11 11 10 12 12 14 14 15 15 18 20 20 19 21
9 9 10 10 10 11 11 11 11 12 13 13 12 13 13 13 12 12 12 11 12 13 13 13 13 11 11 10 8 8 8 8 8 9 8 10 11 11 12 14 17 19 21 22 23 23 23
11 10 11 11 11 11 12 12 12 13 13 13 13 14 14 13 12 11 11 12 13 13 14 13 12 11 9 9 7 7 8 8 10 11 12 13 15 14 16 19 20 21 22 23 25 27 27
13 12 12 12 12 12 12 12 13 13 14 14 14 15 15 14 12 13 12 14 13 14 13 11 10 9 8 9 8 9 10 11 12 13 15 17 14 17 19 20 21 23 22 24 25 26 25
14 14 13 13 13 13 13 13 14 14 15 15 15 15 15 13 13 13 14 14 13 13 13 11 10 9 10 10 10 11 12 14 16 18 16 17 18 19 21 21 22 22 23 25 26 28 30
16 15 15 15 14 14 14 15 15 16 16 16 16 16 15 14 13 14 14 13 13 12 14 11 11 11 11 12 12 14 16 16 17 18 18 22 21 21 22 25 25 25 27 29 28 25 27
17 17 16 16 16 15 15 16 16 17 17 17 17 16 15 15 14 14 13 13 13 11 12 10 11 12 14 14 15 17 16 16 16 18 19 23 23 20 21 24 23 21 23 24 24 21 28
18 18 17 17 17 17 17 17 17 18 18 18 18 16 16 15 15 14 13 13 13 13 12 14 15 17 16 17 16 17 18 18 17 21 22 22 21 22 23 22 24 25 25 22 25 26 31
19 19 18 18 17 17 18 18 18 18 18 18 16 16 16 16 15 14 14 14 14 14 14 15 16 18 15 15 17 18 18 20 20 20 21 23 22 22 23 26 26 25 25 28 30 36 33
20 19 19 19 19 18 18 18 19 18 18 17 16 16 16 16 15 15 15 15 15 16 17 17 17 17 18 16 19 20 19 21 21 21 24 23 27 26 24 26 27 24 30 29 29 30 35
22 20 19 19 20 20 20 19 19 19 18 17 16 16 16 16 15 16 17 16 16 17 18 18 18 19 18 20 21 23 21 22 23 24 24 25 25 25 29 28 30 32 31 30 32 32 31
24 22 21 20 20 20 20 20 20 20 19 18 17 17 16 16 18 18 17 18 18 17 18 18 18 19 21 21 23 23 22 21 23 25 26 25 28 30 32 36 28 26 28 29 29 33 33
25 23 22 23 22 21 21 21 21 21 20 19 19 18 19 18 19 18 17 18 18 19 19 20 19 21 21 21 23 23 22 22 23 25 25 27 27 31 26 26 26 27 32 34 35 34 37
26 24 22 23 22 22 22 23 23 23 22 21 20 19 18 19 20 20 18 19 19 20 20 21 21 22 22 22 22 23 24 25 25 28 28 29 30 30 32 34 34 36 37 35 33 29 32
27 25 23 22 22 23 24 24 24 23 23 22 21 20 20 19 19 19 20 20 20 21 22 22 21 22 23 23 23 24 25 25 26 28 28 29 31 33 35 35 36 37 35 32 31 29 26
28 27 25 23 23 23 23 22 23 24 23 23 22 21 21 21 21 20 22 22 22 22 22 22 23 21 23 24 24 25 26 27 29 28 30 30 32 33 33 34 34 35 32 33 26 25 25
28 26 25 25 24 23 23 22 22 22 22 21 21 22 22 21 21 23 22 22 22 20 22 22 22 22 24 24 26 27 29 31 31 31 32 31 31 31 33 32 32 30 25 23 22 20 23
26 26 25 24 23 22 21 20 20 19 21 21 21 21 21 22 22 23 22 21 20 22 21 21 22 24 25 27 29 30 30 32 33 32 31 31 30 29 30 29 28 22 20 19 21 22 19
23 23 22 21 20 20 19 18 18 18 19 20 20 21 20 20 20 20 19 18 18 19 19 20 22 24 26 27 28 29 28 30 31 29 28 27 27 26 25 25 25 19 19 18 17 21 20
20 20 19 19 18 17 17 17 17 18 18 18 18 19 19 19 19 17 17 18 18 19 21 22 23 25 26 27 27 28 28 27 26 26 26 25 24 23 23 23 23 16 17 20 18 19 20
19 18 18 17 16 16 16 16 16 16 16 18 18 18 17 16 17 17 16 17 19 20 21 22 23 25 26 27 28 28 28 27 26 26 22 22 22 22 23 21 16 17 21 21 16 19 28
21 17 16 14 14 15 15 16 15 15 15 14 14 15 16 15 14 14 16 16 19 20 21 23 24 26 27 26 27 27 26 26 26 25 23 21 20 19 18 17 17 17 18 18 21 26 28
21 17 16 14 13 13 14 14 13 13 13 12 12 12 11 12 12 11 13 16 18 20 22 24 25 26 27 27 27 27 26 26 24 23 20 19 18 17 16 16 17 21 17 19 23 25 27
Wind_Direction
252 263 275 287 297 305 311 315 318 320 322 323 324 326 327 326 324 323 323 323 325 325 324 323 323 324 320 309 315 309 307 307 303 302 302 302 295 296 290 300 291 280 287 286 282 278 276
259 266 275 283 291 298 304 309 313 316 319 321 321 324 324 324 323 323 320 316 315 314 315 315 314 315 308 302 306 307 304 301 302 298 298 299 298 296 290 291 288 294 291 287 283 276 275
261 267 275 284 290 295 300 305 309 313 317 320 321 322 322 322 323 320 315 311 309 310 311 310 308 306 303 305 303 302 300 297 298 297 292 293 293 289 299 290 299 293 293 288 275 274 279
263 268 276 283 289 295 299 303 306 310 315 318 320 321 322 321 320 316 312 308 306 307 307 306 305 302 305 302 299 298 296 293 293 292 291 290 290 287 285 294 289 291 288 294 299 270 281
265 271 277 282 289 294 298 300 303 307 312 316 319 320 320 319 317 315 311 307 306 306 305 304 303 300 304 302 300 300 297 294 292 289 291 289 288 288 287 287 291 282 289 283 285 278 286
268 273 280 285 289 293 296 298 301 304 309 314 317 318 320 318 314 313 311 308 307 306 304 305 305 301 302 301 300 297 294 293 292 291 289 287 285 287 285 282 284 295 292 292 289 283 282
268 275 281 287 291 294 296 298 301 304 309 312 314 317 321 319 313 310 310 305 302 303 315 309 307 303 303 300 298 297 297 293 290 289 293 290 292 284 284 279 283 295 291 288 288 287 282
267 273 279 285 290 294 295 297 300 305 307 309 310 312 314 312 308 306 306 307 307 302 303 309 308 307 307 305 297 312 308 303 299 299 296 294 287 304 299 298 295 290 288 288 289 287 286
265 271 277 282 287 291 294 295 299 302 305 306 307 308 309 306 303 304 308 307 305 304 303 305 305 307 306 302 305 307 310 309 303 300 296 291 300 296 296 295 291 287 286 289 289 291 287
265 269 275 279 284 288 289 292 297 301 303 303 304 305 306 303 295 299 301 304 303 304 301 301 297 298 295 296 290 300 302 303 296 302 304 292 299 299 295 291 291 292 296 295 295 296 289
265 269 273 277 282 285 287 289 294 298 300 301 302 302 302 302 295 296 297 299 300 303 309 303 297 293 295 294 293 295 299 295 297 299 300 294 299 300 296 294 297 289 299 294 292 289 292
263 267 272 276 279 282 283 287 292 295 297 299 299 298 298 294 295 296 297 296 297 302 292 295 293 291 288 293 293 292 294 296 297 296 290 289 293 293 296 298 293 296 295 290 285 283 285
262 266 270 274 278 281 282 285 290 293 294 295 295 292 292 292 292 294 293 294 298 292 300 295 291 292 294 293 292 299 300 306 303 307 304 301 295 293 297 298 293 291 296 296 292 282 280
261 265 269 273 276 279 282 285 289 292 293 294 292 288 287 289 289 289 290 291 291 298 294 289 289 288 289 297 292 296 291 293 309 303 298 300 299 303 306 304 299 296 294 287 289 287 290
258 263 268 271 274 277 281 284 287 290 292 293 290 286 284 287 286 284 285 288 293 302 297 294 287 287 286 289 293 294 300 300 303 308 302 303 295 300 303 299 299 299 296 294 289 288 287
257 261 267 270 273 275 279 283 286 288 290 290 287 285 284 287 281 281 283 283 288 294 293 289 288 289 293 293 294 294 291 298 298 303 302 300 297 295 299 302 297 297 298 297 292 291 284
254 259 265 268 272 274 277 280 284 285 286 286 284 285 284 283 280 281 282 288 288 292 291 293 292 288 289 295 294 294 297 297 299 302 299 302 295 299 304 298 301 298 296 295 293 290 291
250 257 263 269 271 273 274 277 280 282 281 281 282 282 285 281 282 281 284 289 289 290 292 289 288 291 291 294 293 291 295 297 299 300 301 301 298 297 298 298 298 301 299 298 294 295 292
249 255 263 267 270 272 273 275 277 277 276 278 278 281 282 280 281 278 280 285 291 289 291 291 289 293 291 292 293 295 294 293 299 301 302 302 298 302 300 304 300 302 302 299 294 292 289
248 255 263 266 267 270 272 274 276 273 272 272 277 279 280 280 279 281 280 281 285 291 290 291 290 290 290 290 292 294 293 296 299 300 298 299 296 293 294 299 300 298 298 296 293 294 295
246 252 260 269 268 270 273 273 274 270 269 269 272 275 277 279 281 283 284 283 284 286 289 290 291 292 293 292 293 292 297 296 297 299 297 299 298 297 297 299 299 296 296 298 297 296 292
245 250 258 266 269 272 272 274 274 267 266 268 269 272 275 279 280 279 283 286 282 286 287 288 290 291 293 294 297 299 298 298 297 298 299 299 300 301 298 297 297 296 297 298 295 295 292
245 250 257 264 268 270 271 273 274 267 264 268 268 270 274 277 280 282 284 283 285 282 288 291 292 290 292 297 300 299 299 298 298 299 299 298 300 301 299 302 304 299 301 298 297 298 297
243 249 258 264 263 264 268 272 275 270 264 266 268 270 273 278 281 284 285 284 282 284 285 288 292 294 298 299 299 297 296 297 296 296 294 298 299 299 300 303 300 303 308 302 301 296 299
243 249 254 258 259 263 264 268 273 274 269 269 270 271 275 280 281 283 281 284 284 289 290 290 296 298 300 300 301 301 300 301 298 298 296 294 298 301 301 301 302 302 305 305 304 300 306
243 246 248 251 258 259 263 267 275 272 271 271 274 274 277 279 286 280 281 280 285 288 289 294 297 301 302 302 303 302 303 308 305 302 298 295 295 299 302 299 299 304 306 307 306 299 310
244 245 244 248 253 258 265 268 273 276 276 272 273 276 275 280 285 284 285 286 291 293 295 297 298 300 304 304 302 302 303 305 303 303 301 299 298 293 294 297 298 301 303 304 308 301 311
239 237 234 243 252 259 265 271 271 276 275 271 275 280 275 279 287 290 291 295 293 297 296 299 302 304 304 304 306 306 304 304 304 301 305 302 303 302 304 299 295 308 300 305 301 308 312
228 228 237 243 252 258 264 272 270 270 270 272 280 282 280 282 283 290 301 305 304 304 301 303 303 306 307 307 308 306 306 306 305 301 306 301 301 297 299 296 297 304 305 307 312 313 314